Location: Crozet
(46.2809°N, 6.0118°E)
Time: 06:52:58
(UTC+00:00)

Daily predictions for brighter satellites

Satellite Brightness Start Highest point End
(mag) Time Altitude Azimuth Time Altitude Azimuth Time Altitude Azimuth
Cosmos 1814 Rocket 4.1 16:17:00 10° SSW 16:22:19 75° ESE 16:27:38 10° NNE
Cosmos 1980 4.4 16:18:29 10° S 16:23:36 36° ESE 16:28:43 10° NE
Cosmos 2221 2.5 16:23:19 10° S 16:27:38 67° E 16:31:56 10° NNE
H-2A R/B 3.0 16:26:43 10° S 16:30:30 78° WSW 16:34:23 10° NNW
Cosmos 1570 Rocket 4.2 16:26:28 10° SSW 16:31:47 80° WNW 16:37:06 10° NNE
Abrixas rocket 2.1 16:30:17 10° WNW 16:33:02 65° SSW 16:35:47 10° ESE
Cosmos 1500 Rocket 3.6 16:29:00 10° N 16:33:22 62° E 16:37:44 10° SSE
Meteor 2-2 Rocket 4.4 16:29:03 10° S 16:34:59 72° E 16:40:51 10° NNE
YAOGAN 6 2.6 16:31:44 10° SSE 16:35:22 66° ENE 16:39:00 10° N
CZ-4C R/B 3.1 16:35:25 10° NNE 16:39:03 86° ESE 16:42:41 10° SSW
NOSS 2-1 (C) 4.4 16:34:14 10° NW 16:39:19 89° NE 16:46:32 10° SE
Cosmos 405 Rocket 2.7 16:37:42 10° N 16:41:36 69° E 16:45:32 10° SSE
ADEOS Rocket 3.7 16:36:27 10° NNE 16:44:07 85° WNW 16:51:55 10° SSW
NOSS 2-1 (D) 4.5 16:39:40 10° NW 16:44:47 85° SW 16:52:04 10° SE
Cosmos 405 3.4 16:42:25 10° SSW 16:45:52 66° WNW 16:49:22 10° N
YAOGAN 1 4.3 16:44:13 10° E 16:45:59 12° ENE 16:47:43 10° NE
Cosmos 389 Rocket 3.7 16:43:53 10° SE 16:46:35 22° E 16:49:18 10° NE
Cosmos 1943 Rocket 3.5 16:42:54 10° N 16:46:39 18° NE 16:50:05 11° E
H-2A R/B 2.9 16:46:16 10° S 16:50:37 70° WSW 16:54:49 10° NNW
BREEZE-M DEB (TANK) 1.5 16:49:12 10° WSW 16:51:29 89° SSW 16:53:03 17° ENE
Cosmos 2322 Rocket 4.5 16:48:05 10° W 16:51:40 17° NW 16:55:17 10° N
SL-16 R/B 3.4 16:49:22 10° SSE 16:53:30 21° E 16:56:52 13° ENE
USA 215 3.6 16:47:51 10° ENE 16:54:10 52° SE 17:00:30 10° SSW
Cosmos 1743 Rocket 3.8 16:51:13 10° NNW 16:55:42 76° W 17:00:08 10° S
COSMO-SKYMED 1 3.7 16:52:30 10° NE 16:55:59 23° E 16:59:25 10° SSE
CZ-2C R/B 4.2 16:52:21 10° ESE 16:56:01 20° ENE 16:59:35 10° NNE
Okean-O 4.0 16:54:14 10° ESE 16:57:17 19° ENE 17:00:21 10° NNE
Cosmos 2298 Rocket 4.2 16:52:11 10° NNW 16:57:30 80° WSW 17:02:48 10° SSE
Cosmos 2150 Rocket 4.1 16:53:44 10° NNW 16:58:55 84° WSW 17:04:03 10° SSE
Cosmos 1818 3.6 16:54:50 10° NW 17:00:21 88° ENE 17:05:49 10° SE
AQUARIUS 4.1 16:56:48 10° SSE 17:01:16 81° ENE 17:05:47 10° NNW
Cosmos 1606 3.1 17:00:28 10° SSE 17:04:09 42° E 17:07:51 10° NNE
Sich 1 3.2 17:00:33 10° N 17:04:52 51° ENE 17:09:06 10° SSE
BREEZE-M TANK 4.1 16:59:50 10° WNW 17:05:58 41° SSW 17:09:09 10° SE
Okean O Rocket 1.6 17:03:56 10° SSE 17:08:17 84° WSW 17:12:41 10° NNW
Cosmos 2333 Rocket 3.5 17:03:43 10° WSW 17:09:00 39° NW 17:14:18 10° NNE
Cosmos 2366 rocket 4.5 17:03:48 10° N 17:09:29 36° ENE 17:15:04 10° SE
Helios 1A Rocket 4.1 17:07:32 14° ESE 17:09:52 21° ENE 17:12:56 10° NNE
ISS -3.8 17:08:20 10° WSW 17:11:42 83° SSE 17:13:33 25° ENE
Nadezhda 1 Rocket 4.2 17:05:23 10° S 17:11:43 83° W 17:18:09 10° N
Cosmos 1125 Rocket 3.5 17:08:30 10° NNW 17:13:44 88° WSW 17:18:56 10° SSE
COSMOS 2428 3.8 17:08:59 10° SW 17:14:27 44° NW 17:19:57 10° NNE
Cosmos 1356 3.5 17:11:15 10° N 17:14:36 49° ENE 17:17:55 10° SSE
Cosmos 1805 Rocket 3.5 17:11:20 10° N 17:15:49 89° E 17:20:15 10° S
Feng Yun 1-1 Rocket 4.3 17:10:28 10° SSE 17:16:10 60° ENE 17:21:45 10° N
SAR-Lupe-4 4.4 17:15:58 23° ENE 17:17:18 30° E 17:20:30 10° SSE
CZ-4B R/B 1.1 17:17:16 16° NNE 17:19:36 62° ESE 17:22:39 10° S
Cosmos 2278 Rocket 2.9 17:15:20 10° NNW 17:20:55 58° WSW 17:26:27 10° S
Cosmos 1151 Rocket 3.7 17:17:37 10° SSE 17:21:26 32° E 17:23:24 21° NE
Cosmos 1666 Rocket 3.7 17:17:43 10° N 17:22:00 50° ENE 17:26:18 10° SSE
IRS-1C Rocket 4.2 17:20:28 10° SE 17:25:36 55° ENE 17:30:46 10° N
Cosmos 1328 Rocket 4.2 17:23:30 10° SSE 17:27:20 32° E 17:28:37 27° ENE
USA 267 3.3 17:21:44 14° ESE 17:27:24 64° NNE 17:33:52 10° NW
Cosmos 962 Rocket 4.4 17:21:27 10° N 17:27:48 85° E 17:34:02 10° S
Lacrosse 5 rocket 2.6 17:25:32 10° S 17:28:07 19° SE 17:28:07 19° SE
ERS-2 2.0 17:29:45 13° NNE 17:32:57 81° ESE 17:36:36 10° SSW
Cosmos 2341 Rocket 4.0 17:27:49 10° N 17:34:08 84° E 17:40:28 10° S
NOSS 0 Rocket 4.4 17:28:09 10° SW 17:34:19 62° WNW 17:40:31 10° NNE
SAR-Lupe-1 4.3 17:33:31 36° NE 17:34:31 46° E 17:37:58 10° S
SL-24 R/B 4.1 17:32:45 26° NE 17:34:38 43° E 17:38:15 10° S
Meteor 1-25 Rocket 4.2 17:29:19 10° N 17:34:51 59° ENE 17:40:25 10° SSE
CZ-2D R/B 3.3 17:31:33 10° SSE 17:35:14 51° ENE 17:38:58 10° N
CZ-4 R/B 1.7 17:38:23 39° ENE 17:38:33 39° ENE 17:42:16 10° N
Cosmos 2219 Rocket 4.0 17:35:29 10° WSW 17:40:13 27° NW 17:44:58 10° N
H-2A R/B 3.8 17:37:27 10° N 17:41:08 31° WNW 17:44:51 10° SW
TELKOM 3 3.4 17:39:13 10° WSW 17:41:32 62° WSW 17:41:32 62° WSW
CZ-3B R/B 3.7 17:41:44 10° S 17:42:22 12° SSE 17:42:22 12° SSE
BREEZE-M DEB (TANK) 2.2 17:41:15 10° WSW 17:43:13 51° SW 17:43:13 51° SW
SKYMED 2 3.4 17:40:45 15° NNE 17:44:18 71° ESE 17:48:38 10° S
USA 81 3.9 17:40:28 10° N 17:45:46 73° E 17:51:02 10° S
SL-24 DEB 4.4 17:42:58 10° NNE 17:47:38 50° E 17:52:13 10° SSE
CREW DRAGON DEMO-1 DEB 3.1 17:45:08 10° WNW 17:47:43 56° NNW 17:47:43 56° NNW
Cosmos 2285 Rocket 3.9 17:42:48 10° NNW 17:49:12 66° ENE 17:55:30 10° SSE
Cosmos 2237 Rocket 2.7 17:43:45 10° SW 17:49:16 57° WNW 17:54:26 12° NNE
Cosmos 1939 Rocket 2.9 17:47:05 10° S 17:50:56 73° W 17:54:50 10° NNW
Cosmos 1633 Rocket 2.9 17:48:20 10° N 17:52:46 86° E 17:57:07 10° S
H-2A R/B 2.4 17:52:26 34° ESE 17:54:01 43° ENE 17:58:57 10° N
SL-8 Rocket 4.0 17:52:03 10° N 17:58:18 84° W 18:04:34 10° S
Cosmos 773 Rocket 4.1 17:53:15 10° S 17:58:18 51° ESE 17:59:15 45° ENE
Cosmos 864 Rocket 4.4 17:51:58 10° N 17:58:20 78° E 18:04:36 10° SSE
CSL-04 Rocket 3.8 18:01:44 45° ENE 18:01:50 45° ENE 18:06:54 10° N
USA 281 3.1 17:55:20 10° SSE 18:01:53 84° ENE 18:08:30 10° NNW
Cosmos 2369 Rocket 2.8 17:57:23 10° NNW 18:02:10 36° NE 18:02:10 36° NE
Cosmos 783 Rocket 4.4 17:59:32 10° SSW 18:04:50 80° ESE 18:07:11 34° NNE
Cosmos 2181 Rocket 4.1 17:58:25 10° S 18:04:52 85° W 18:11:18 10° N
MOS 1 Rocket 3.6 18:03:47 37° NE 18:05:43 57° E 18:11:03 10° S
Cosmos 1959 Rocket 4.5 18:01:00 10° N 18:07:24 88° W 18:13:45 10° S
Cosmos 1821 Rocket 4.2 18:06:04 10° N 18:11:29 45° ENE 18:11:29 45° ENE
Cosmos 1241 Rocket 4.4 18:07:55 10° NNW 18:14:33 76° NE 18:17:23 37° SE
YAOGAN 1 2.5 18:21:23 83° WSW 18:21:25 83° WSW 18:25:47 10° NNW
SL-08 R/B 4.3 18:20:51 10° N 18:27:04 83° E 18:33:11 10° S
Cosmos 2297 4.1 18:22:32 10° NNW 18:28:09 62° WSW 18:33:45 10° S
Cosmos 1470 Rocket 4.0 18:23:49 10° NNW 18:27:22 56° NW 18:27:22 56° NW
Cosmos 1943 Rocket 2.0 18:25:40 10° NNW 18:31:15 86° ENE 18:31:41 76° SE
Meteor 1-14 Rocket 4.2 18:25:32 10° N 18:31:29 89° W 18:37:29 10° S
Cosmos 44 3.6 18:26:18 10° NW 18:31:35 73° WSW 18:32:40 56° S
COSMO-SKYMED 1 3.9 18:29:20 17° N 18:32:16 38° WNW 18:36:15 10° SW
Okean-O 3.3 18:29:03 10° S 18:33:23 53° W 18:37:44 10° NNW
CZ-2C R/B 3.5 18:30:26 10° S 18:35:32 59° W 18:40:25 10° NNW
ARGOS 3.9 18:38:31 41° N 18:38:31 41° N 18:42:00 10° N
Cosmos 1867 4.1 18:31:27 10° SW 18:36:47 55° NW 18:37:58 45° N
SL-16 R/B 2.5 18:31:29 10° SW 18:37:06 64° WNW 18:38:47 44° N
USA 215 3.5 18:35:13 43° NNE 18:37:16 61° NNW 18:43:41 10° WSW
Helios 1A Rocket 4.3 18:43:48 31° SW 18:44:49 37° W 18:48:34 10° NNW
ISS -0.8 18:45:38 10° WNW 18:46:31 16° WNW 18:46:31 16° WNW
Lacrosse 5 rocket 4.1 19:03:25 10° WSW 19:03:47 12° WSW 19:03:47 12° WSW
USA 267 3.9 19:09:07 41° SSW 19:10:34 48° SW 19:16:51 10° WNW
CZ-4 R/B 4.0 19:14:25 18° WNW 19:14:25 18° WNW 19:16:33 10° NW
ATLAS CENTAUR R/B 4.4 19:06:34 10° NW 19:24:36 57° WSW 19:27:27 42° S
H-2A R/B 3.9 19:33:04 28° WSW 19:33:34 28° W 19:38:05 10° NW
Cosmos 2369 Rocket 4.1 19:41:25 10° NW 19:43:59 25° NW 19:43:59 25° NW
